GW2110 Weather Reports


time (UTC)temp
C
wind
direction
speed
KPH
gust
KPH
rain 1hr
cm
rain 24hr
cm
rain mn
cm
humidity
%
barometer
mb
20260507105254 3 237 1.6 1.6 0.00 0.00 0.00 91 1011.3
20260507104752 3 266 1.6 3.2 0.00 0.00 0.00 90 1011.2
20260507104248 3 258 1.6 1.6 0.00 0.00 0.00 89 1011.1
20260507103744 2 241 1.6 1.6 0.00 0.00 0.00 90 1011.1
20260507103240 2 240 3.2 3.2 0.00 0.00 0.00 89 1011.2
20260507102737 2 253 0.0 1.6 0.00 0.00 0.00 88 1011.2
20260507102234 3 276 1.6 1.6 0.00 0.00 0.00 87 1011.1
20260507101730 3 245 1.6 3.2 0.00 0.00 0.00 86 1011.0
20260507101225 2 228 1.6 3.2 0.00 0.00 0.00 86 1011.2
20260507100722 2 249 1.6 1.6 0.00 0.00 0.00 86 1011.0
20260507100221 2 242 1.6 3.2 0.00 0.00 0.00 90 1011.0
20260507095718 2 242 3.2 3.2 0.00 0.00 0.00 89 1011.1
20260507095215 2 258 1.6 1.6 0.00 0.00 0.00 89 1010.8
20260507094712 2 248 0.0 1.6 0.00 0.00 0.00 89 1010.9
20260507094209 3 265 1.6 1.6 0.00 0.00 0.00 88 1011.0
20260507093705 3 238 1.6 3.2 0.00 0.00 0.00 88 1011.1
20260507093204 3 238 1.6 3.2 0.00 0.00 0.00 88 1011.1
20260507092701 2 241 3.2 3.2 0.00 0.00 0.00 90 1011.1
20260507092157 2 249 3.2 3.2 0.00 0.00 0.00 92 1011.2
20260507091654 2 240 3.2 3.2 0.00 0.00 0.00 92 1011.4
20260507091150 2 253 3.2 3.2 0.00 0.00 0.00 92 1011.3
20260507090646 2 243 1.6 1.6 0.00 0.00 0.00 92 1011.2
20260507090143 2 243 3.2 3.2 0.00 0.00 0.00 92 1011.1
20260507085640 2 244 1.6 1.6 0.00 0.00 0.00 91 1011.2
20260507085137 2 248 1.6 3.2 0.00 0.00 0.00 91 1011.2
20260507084634 2 261 1.6 1.6 0.00 0.00 0.00 91 1011.2
20260507084130 2 260 0.0 0.0 0.00 0.00 0.00 91 1011.0
20260507083627 3 252 0.0 1.6 0.00 0.00 0.00 90 1011.2
20260507083124 3 254 1.6 1.6 0.00 0.00 0.00 89 1011.1
20260507082620 3 227 3.2 3.2 0.00 0.00 0.00 90 1010.9
20260507082116 2 223 1.6 1.6 0.00 0.00 0.00 93 1011.0
20260507081613 3 216 1.6 1.6 0.00 0.00 0.00 94 1011.0
20260507081109 2 227 1.6 1.6 0.00 0.00 0.00 95 1011.1
20260507080606 2 243 1.6 1.6 0.00 0.00 0.00 95 1011.2
20260507075557 2 232 1.6 1.6 0.00 0.00 0.00 94 1011.2
20260507075054 2 231 1.6 1.6 0.00 0.00 0.00 93 1011.1
20260507074551 3 233 1.6 1.6 0.00 0.00 0.00 95 1010.9
20260507074049 2 232 0.0 1.6 0.00 0.00 0.00 95 1011.0
20260507073545 2 242 0.0 0.0 0.00 0.00 0.00 94 1011.2
20260507073042 3 243 0.0 0.0 0.00 0.00 0.00 94 1011.3
20260507072539 3 242 0.0 1.6 0.00 0.00 0.00 94 1011.4
20260507072036 3 224 1.6 1.6 0.00 0.00 0.00 94 1011.3
20260507071533 3 233 0.0 1.6 0.00 0.00 0.00 95 1011.4
20260507071030 3 236 0.0 0.0 0.00 0.00 0.00 95 1011.5
20260507070527 3 231 1.6 1.6 0.00 0.00 0.00 95 1011.5
20260507070024 3 224 1.6 1.6 0.00 0.00 0.00 96 1011.4
20260507065520 3 242 0.0 0.0 0.00 0.00 0.00 96 1011.4
20260507065018 3 239 1.6 1.6 0.00 0.00 0.00 96 1011.4
20260507064515 3 241 0.0 0.0 0.00 0.00 0.00 96 1011.3
20260507064014 3 248 0.0 1.6 0.00 0.00 0.00 96 1011.4
20260507063510 4 253 0.0 0.0 0.00 0.00 0.00 96 1011.6
20260507063008 4 249 0.0 0.0 0.00 0.00 0.00 96 1011.5
20260507062504 4 235 0.0 1.6 0.00 0.00 0.00 96 1011.7
20260507062002 4 249 0.0 0.0 0.00 0.00 0.00 96 1011.4
20260507061459 4 239 0.0 0.0 0.00 0.00 0.00 96 1011.7
20260507060958 4 246 0.0 0.0 0.00 0.00 0.00 96 1011.7
20260507060454 4 236 1.6 3.2 0.00 0.00 0.00 97 1011.5
20260507055951 4 235 0.0 1.6 0.00 0.00 0.00 97 1011.6
20260507055446 4 236 0.0 1.6 0.00 0.00 0.00 96 1011.6
20260507054943 4 249 0.0 0.0 0.00 0.00 0.00 96 1011.6
20260507054439 4 254 0.0 0.0 0.00 0.00 0.00 96 1011.9
20260507053937 4 241 0.0 0.0 0.00 0.00 0.00 96 1012.0
20260507053434 4 236 0.0 1.6 0.00 0.00 0.00 96 1012.1
20260507052932 4 258 1.6 1.6 0.00 0.00 0.00 96 1012.0
20260507052430 4 264 1.6 1.6 0.00 0.00 0.00 96 1012.3
20260507051927 4 241 1.6 1.6 0.00 0.00 0.00 96 1012.3
20260507051424 4 251 0.0 1.6 0.00 0.00 0.00 96 1012.3
20260507050921 4 250 1.6 1.6 0.00 0.00 0.00 96 1012.1
20260507050418 4 255 1.6 1.6 0.00 0.00 0.00 96 1012.3
20260507045915 4 261 1.6 1.6 0.00 0.00 0.00 96 1012.0
20260507045411 4 226 3.2 3.2 0.00 0.00 0.00 96 1012.5
20260507044908 4 238 1.6 1.6 0.00 0.00 0.00 96 1012.3
20260507044405 4 253 0.0 1.6 0.00 0.00 0.00 96 1012.5
20260507043901 4 266 0.0 1.6 0.00 0.00 0.00 96 1012.4
20260507043357 4 286 1.6 1.6 0.00 0.00 0.00 96 1012.1
20260507042854 4 242 4.8 4.8 0.00 0.00 0.00 96 1012.4
20260507042350 4 260 3.2 3.2 0.00 0.00 0.00 96 1012.3
20260507041846 4 254 1.6 1.6 0.00 0.00 0.00 96 1012.5
20260507041343 4 255 1.6 1.6 0.00 0.00 0.00 96 1011.9
20260507040841 5 258 3.2 3.2 0.00 0.00 0.00 96 1012.1
20260507040336 5 286 1.6 3.2 0.00 0.00 0.00 96 1012.1
20260507035833 5 266 1.6 3.2 0.00 1.12 1.12 96 1012.3
20260507035328 5 301 3.2 3.2 0.00 1.12 1.12 96 1011.9
20260507034826 5 256 0.0 0.0 0.00 1.12 1.12 96 1012.0
20260507034323 4 229 3.2 3.2 0.00 1.12 1.12 96 1011.9
20260507033821 5 252 1.6 3.2 0.00 1.12 1.12 97 1011.9
20260507033318 5 248 1.6 3.2 0.00 1.12 1.12 97 1011.9
20260507032815 5 290 1.6 3.2 0.00 1.12 1.12 97 1012.0
20260507032311 5 268 3.2 3.2 0.00 1.12 1.12 97 1011.9
20260507031808 5 276 4.8 4.8 0.00 1.12 1.12 97 1012.0
20260507031305 5 264 1.6 1.6 0.00 1.12 1.12 97 1012.1
20260507030801 5 231 4.8 4.8 0.00 1.12 1.12 97 1012.0
20260507030259 5 226 4.8 4.8 0.00 1.12 1.12 97 1012.0
20260507025756 5 261 1.6 1.6 0.00 1.12 1.12 97 1011.8
20260507025253 5 268 3.2 3.2 0.00 1.12 1.12 97 1011.7
20260507024751 5 247 0.0 1.6 0.00 1.12 1.12 97 1011.7
20260507024248 5 281 3.2 3.2 0.00 1.12 1.12 97 1011.6
20260507023743 5 269 3.2 4.8 0.00 1.12 1.12 97 1011.9
20260507023240 5 300 4.8 8.0 0.00 1.12 1.12 97 1011.5
20260507022738 5 266 1.6 1.6 0.00 1.12 1.12 97 1011.6
20260507022233 5 261 1.6 3.2 0.00 1.12 1.12 97 1011.8
20260507021730 5 269 1.6 3.2 0.00 1.12 1.12 96 1011.8
20260507021226 5 300 3.2 3.2 0.00 1.12 1.12 96 1011.9
20260507020724 5 264 1.6 3.2 0.00 1.12 1.12 96 1012.0
20260507020220 5 262 3.2 3.2 0.00 1.12 1.12 96 1012.3
20260507015718 5 258 3.2 4.8 0.00 1.12 1.12 96 1012.0
20260507015215 5 300 3.2 3.2 0.00 1.12 1.12 96 1012.0
20260507014712 5 341 3.2 3.2 0.00 1.12 1.12 96 1012.0
20260507014208 5 306 1.6 1.6 0.00 1.12 1.12 96 1012.0
20260507013705 5 279 1.6 1.6 0.00 1.12 1.12 96 1011.8
20260507013202 5 246 3.2 3.2 0.00 1.12 1.12 96 1012.0
20260507012700 5 252 6.4 9.7 0.00 1.12 1.12 96 1011.9
20260507012155 5 322 1.6 3.2 0.00 1.12 1.12 96 1011.7
20260507011653 5 281 4.8 4.8 0.00 1.12 1.12 96 1011.8
20260507011149 5 258 1.6 3.2 0.00 1.12 1.12 96 1011.6
20260507010644 5 334 1.6 3.2 0.00 1.12 1.12 96 1011.7
20260507010140 5 230 4.8 9.7 0.00 1.12 1.12 97 1011.8
20260507005637 5 300 3.2 4.8 0.00 1.12 1.12 97 1011.9
20260507005133 5 267 3.2 3.2 0.00 1.12 1.12 97 1011.9
20260507004630 5 319 1.6 1.6 0.00 1.12 1.12 98 1011.9
20260507004128 5 258 4.8 4.8 0.00 1.12 1.12 98 1011.5
20260507003624 5 239 6.4 8.0 0.00 1.12 1.12 98 1011.6
20260507003120 5 310 3.2 3.2 0.00 1.12 1.12 98 1011.2
20260507002616 5 212 3.2 4.8 0.00 1.12 1.12 98 1011.2
20260507002112 5 264 1.6 1.6 0.00 1.12 1.12 98 1011.1
20260507001609 5 274 0.0 1.6 0.00 1.12 1.12 98 1011.2
20260507001106 5 330 6.4 9.7 0.00 1.12 1.12 98 1011.1
20260507000602 5 282 4.8 8.0 0.00 1.12 1.12 98 1011.0
20260507000058 5 274 1.6 4.8 0.00 1.12 1.12 98 1010.8
20260506235555 5 274 3.2 3.2 0.00 1.12 1.12 98 1010.8
20260506235050 5 276 1.6 3.2 0.00 1.12 1.12 98 1010.8
20260506234548 5 259 4.8 4.8 0.00 1.12 1.12 98 1010.8
20260506234045 6 254 8.0 11.3 0.00 1.12 1.12 98 1010.7
20260506233542 6 253 3.2 9.7 0.00 1.12 1.12 98 1010.7
20260506233039 6 301 6.4 9.7 0.00 1.12 1.12 98 1010.7
20260506232535 6 254 8.0 11.3 0.00 1.12 1.12 98 1010.5
20260506232030 6 328 1.6 3.2 0.00 1.12 1.12 98 1010.4
20260506231528 6 349 8.0 11.3 0.00 1.12 1.12 97 1010.6
20260506231026 6 270 9.7 11.3 0.00 1.12 1.12 97 1010.7
20260506230522 6 333 8.0 14.5 0.00 1.12 1.12 96 1010.5
20260506230020 7 251 4.8 8.0 0.00 1.12 1.12 95 1010.3
20260506225516 7 337 8.0 14.5 0.00 1.12 1.12 94 1010.2
20260506225013 7 252 4.8 8.0 0.00 1.12 1.12 93 1010.0
20260506224510 7 295 9.7 12.9 0.00 1.12 1.12 92 1010.1
20260506224006 7 242 4.8 8.0 0.00 1.12 1.12 91 1010.0
20260506223502 8 248 6.4 11.3 0.00 1.12 1.12 88 1010.0
20260506222959 8 271 6.4 11.3 0.00 1.12 1.12 86 1009.7
20260506222456 8 278 4.8 9.7 0.00 1.12 1.12 85 1009.7
20260506221952 8 272 1.6 3.2 0.00 1.12 1.12 86 1009.4
20260506221449 8 229 6.4 9.7 0.00 1.12 1.12 84 1009.4
20260506220947 8 289 8.0 9.7 0.00 1.12 1.12 87 1009.1
20260506220442 8 240 3.2 4.8 0.00 1.12 1.12 90 1009.1
20260506215939 8 241 8.0 9.7 0.00 1.12 1.12 89 1009.2
20260506215435 8 259 1.6 3.2 0.00 1.12 1.12 92 1009.2
20260506214931 8 239 1.6 1.6 0.00 1.12 1.12 91 1009.2
20260506214428 8 231 1.6 1.6 0.00 1.12 1.12 91 1009.1
20260506213926 8 303 3.2 3.2 0.00 1.12 1.12 90 1009.1
20260506213423 8 292 0.0 1.6 0.00 1.12 1.12 92 1009.0
20260506212921 8 254 0.0 0.0 0.00 1.12 1.12 91 1009.0
20260506212416 8 263 0.0 0.0 0.00 1.12 1.12 91 1008.9
20260506211911 8 251 0.0 0.0 0.00 1.12 1.12 91 1008.9
20260506211408 8 256 0.0 0.0 0.00 1.12 1.12 91 1009.0
20260506210905 8 249 0.0 0.0 0.00 1.12 1.12 92 1008.7
20260506210401 8 253 0.0 0.0 0.00 1.12 1.12 92 1009.1
20260506205859 8 278 0.0 1.6 0.00 1.12 1.12 92 1009.2
20260506205355 8 233 4.8 4.8 0.00 1.12 1.12 92 1009.2
20260506204851 8 252 1.6 1.6 0.00 1.12 1.12 91 1008.9
20260506204349 8 230 1.6 1.6 0.00 1.12 1.12 91 1008.9
20260506203846 8 248 3.2 3.2 0.00 1.12 1.12 91 1009.0
20260506203343 8 266 1.6 1.6 0.00 1.12 1.12 91 1009.0
20260506202840 8 238 1.6 1.6 0.00 1.12 1.12 92 1008.9
20260506202337 8 286 1.6 1.6 0.00 1.12 1.12 95 1009.1
20260506201834 8 244 1.6 1.6 0.00 1.12 1.12 96 1009.3
20260506201331 8 281 0.0 1.6 0.00 1.12 1.12 99 1009.2
20260506200828 7 256 0.0 0.0 0.00 1.12 1.12 99 1009.0
20260506200324 7 295 1.6 1.6 0.00 1.12 1.12 99 1009.2
20260506195820 7 297 1.6 1.6 0.00 1.12 1.12 99 1009.2
20260506195318 7 122 0.0 0.0 0.00 1.12 1.12 99 1009.1
20260506194815 7 275 0.0 0.0 0.00 1.12 1.12 99 1009.2
20260506194311 7 269 0.0 0.0 0.00 1.12 1.12 99 1009.3
20260506193809 7 251 0.0 0.0 0.00 1.12 1.12 99 1009.2
20260506193305 7 267 0.0 0.0 0.00 1.12 1.12 99 1009.1
20260506192801 7 262 0.0 0.0 0.00 1.12 1.12 99 1009.3
20260506192259 7 264 0.0 0.0 0.00 1.12 1.12 99 1009.2
20260506191756 7 332 0.0 1.6 0.00 1.12 1.12 99 1009.0
20260506191252 7 323 1.6 1.6 0.00 1.12 1.12 99 1009.2
20260506190749 7 307 3.2 3.2 0.00 1.12 1.12 99 1009.0
20260506190245 7 264 0.0 0.0 0.00 1.12 1.12 99 1008.8
20260506185742 7 281 0.0 1.6 0.00 1.12 1.12 99 1009.2
20260506185239 7 254 0.0 0.0 0.00 1.12 1.12 99 1009.0
20260506184731 6 307 1.6 3.2 0.00 1.12 1.12 99 1009.0
20260506184228 6 314 1.6 1.6 0.00 1.12 1.12 99 1009.1
20260506183725 6 315 1.6 1.6 0.00 1.12 1.12 99 1009.4
20260506183221 6 301 0.0 1.6 0.00 1.12 1.12 99 1009.2
20260506182718 6 336 3.2 3.2 0.00 1.12 1.12 99 1009.2
20260506182215 6 262 0.0 0.0 0.00 1.12 1.12 99 1009.0
20260506181713 6 284 0.0 0.0 0.00 1.12 1.12 99 1009.1
20260506181211 6 356 3.2 3.2 0.00 1.12 1.12 99 1009.3
20260506180707 6 319 3.2 3.2 0.00 1.12 1.12 99 1009.3
20260506180202 6 338 4.8 4.8 0.00 1.12 1.12 99 1009.1
20260506175659 6 264 0.0 0.0 0.00 1.12 1.12 99 1009.2
20260506175156 6 212 0.0 0.0 0.00 1.12 1.12 99 1009.2
20260506174655 6 317 1.6 1.6 0.00 1.12 1.12 99 1008.9
20260506174151 6 253 0.0 0.0 0.00 1.12 1.12 99 1009.1
20260506173649 6 308 3.2 3.2 0.00 1.12 1.12 99 1009.1
20260506173145 6 330 1.6 1.6 0.00 1.12 1.12 99 1009.1
20260506172642 6 308 1.6 1.6 0.00 1.12 1.12 99 1009.1
20260506172139 6 262 0.0 0.0 0.00 1.12 1.12 99 1009.0
20260506171631 6 347 4.8 4.8 0.00 1.12 1.12 99 1008.8
20260506171128 6 279 1.6 1.6 0.00 1.12 1.12 99 1008.6
20260506170625 6 267 0.0 1.6 0.00 1.12 1.12 99 1008.6
20260506170117 6 290 0.0 1.6 0.00 1.12 1.12 99 1008.8
20260506165615 6 256 0.0 0.0 0.00 1.12 1.12 99 1008.5
20260506165111 6 327 3.2 3.2 0.00 1.12 1.12 99 1008.5
20260506164609 6 257 0.0 0.0 0.00 1.12 1.12 99 1008.5
20260506164106 6 271 0.0 0.0 0.00 1.12 1.12 99 1008.5
20260506163602 6 257 0.0 0.0 0.00 1.12 1.12 99 1008.7
20260506163057 6 256 0.0 0.0 0.00 1.12 1.12 99 1008.8
20260506162554 6 300 1.6 3.2 0.00 1.12 1.12 99 1008.6
20260506162051 6 264 0.0 0.0 0.00 1.12 1.12 99 1008.7
20260506161549 6 265 0.0 1.6 0.00 1.12 1.12 99 1008.4
20260506161045 6 257 0.0 0.0 0.00 1.12 1.12 99 1008.5
20260506160543 6 252 0.0 0.0 0.00 1.12 1.12 99 1008.3
20260506160039 6 260 0.0 0.0 0.00 1.12 1.12 99 1008.4
20260506155539 6 254 0.0 0.0 0.00 1.12 1.12 99 1008.2
20260506153715 6 227 0.0 0.0 0.00 1.12 1.12 99 1008.3
20260506153213 6 252 0.0 0.0 0.00 1.12 1.12 99 1008.4
20260506152709 5 253 0.0 0.0 0.00 1.12 1.12 99 1008.7
20260506152207 5 8 0.0 0.0 0.00 1.12 1.12 99 1008.5
20260506151706 6 339 1.6 1.6 0.00 1.12 1.12 99 1008.4
20260506151202 5 253 0.0 0.0 0.00 1.12 1.12 99 1007.9
20260506150658 6 254 0.0 0.0 0.13 1.12 1.12 99 1008.3
20260506150156 5 255 0.0 0.0 0.13 1.12 1.12 99 1008.3
20260506145653 5 86 1.6 1.6 0.00 1.09 1.09 99 1008.3
20260506145149 5 237 0.0 0.0 0.00 1.09 1.09 99 1008.3
20260506144647 5 242 0.0 0.0 0.00 1.09 1.09 99 1007.9
20260506144143 5 122 1.6 3.2 0.00 1.09 1.09 99 1008.1
20260506143641 5 206 0.0 1.6 0.00 1.09 1.09 99 1008.4
20260506143139 5 238 0.0 0.0 0.00 1.09 1.09 99 1007.9
20260506142637 5 216 1.6 1.6 0.00 1.09 1.09 99 1008.0
20260506142135 5 122 0.0 0.0 0.00 1.09 1.09 99 1008.1
20260506141632 5 238 0.0 0.0 0.00 1.09 1.09 99 1007.8
20260506141130 5 113 0.0 0.0 0.00 1.09 1.09 99 1008.0
20260506140628 5 225 0.0 1.6 0.00 1.09 1.09 99 1007.9
20260506140125 5 27 0.0 0.0 0.00 1.09 1.09 99 1007.9
20260506135622 5 31 1.6 1.6 0.00 1.09 1.09 99 1008.0
20260506135118 5 242 0.0 0.0 0.00 1.09 1.09 99 1007.8
20260506134615 5 250 0.0 0.0 0.00 1.09 1.09 99 1007.9
20260506134110 5 94 0.0 0.0 0.00 1.09 1.09 99 1007.8
20260506133608 5 94 0.0 0.0 0.18 1.09 1.09 99 1007.9
20260506133105 5 92 1.6 1.6 0.18 1.09 1.09 99 1007.7
20260506132602 5 110 0.0 1.6 0.18 1.09 1.09 99 1007.6
20260506132059 5 108 0.0 0.0 0.00 1.07 1.07 99 1007.9
20260506131556 5 108 0.0 0.0 0.00 1.07 1.07 99 1007.9
20260506131052 5 244 0.0 0.0 0.00 1.07 1.07 99 1007.8
20260506130549 5 120 0.0 0.0 0.00 1.07 1.07 99 1007.7
20260506130047 5 181 0.0 1.6 0.00 1.07 1.07 99 1007.7
20260506125545 5 258 0.0 1.6 0.00 1.07 1.07 99 1007.8
20260506125043 5 115 3.2 3.2 0.00 1.07 1.07 99 1007.8
20260506124540 5 71 1.6 1.6 0.00 1.07 1.07 99 1007.5
20260506124038 5 139 1.6 3.2 0.13 1.07 1.07 99 1007.6
20260506123535 5 126 3.2 3.2 0.13 1.07 1.07 99 1007.5
20260506123033 5 71 1.6 1.6 0.00 1.04 1.04 99 1007.4
20260506122529 5 221 0.0 1.6 0.00 1.04 1.04 99 1007.6
20260506122028 5 128 4.8 4.8 0.00 1.04 1.04 99 1007.6
20260506121525 5 82 1.6 3.2 0.00 1.04 1.04 99 1007.6
20260506121021 5 221 1.6 1.6 0.00 1.04 1.04 99 1007.7
20260506120520 5 243 0.0 0.0 0.18 1.04 1.04 99 1007.7
20260506120017 5 76 1.6 1.6 0.18 1.04 1.04 99 1007.6
20260506115514 5 222 1.6 1.6 0.00 1.02 1.02 99 1007.9
20260506115013 5 234 0.0 0.0 0.00 1.02 1.02 99 1008.2
20260506114509 5 80 0.0 1.6 0.13 1.02 1.02 99 1008.1
20260506114008 5 82 1.6 3.2 0.13 1.02 1.02 99 1008.1
20260506113505 5 285 0.0 1.6 0.00 0.99 0.99 99 1007.9
20260506113003 5 266 1.6 1.6 0.00 0.99 0.99 99 1008.0
20260506112459 5 240 0.0 0.0 0.00 0.99 0.99 99 1007.8
20260506111956 5 355 1.6 1.6 0.00 0.99 0.99 99 1007.6
20260506111454 5 85 1.6 1.6 0.00 0.99 0.99 99 1007.3
20260506110951 5 92 1.6 1.6 0.00 0.99 0.99 99 1007.2
20260506110449 5 76 6.4 9.7 0.00 0.99 0.99 99 1007.0
20260506105945 5 78 3.2 3.2 0.00 0.99 0.99 99 1007.2